| time (UTC) | temp F | wind direction | speed knots | gust knots | rain 1hr in | rain 24hr in | rain mn in | humidity % | barometer mb |
| 20260504012639 | 53 | 238 | 0.0 | 0.0 | 0.00 | 0.00 | 0.00 | 67 | 1019.8 |
| 20260504012137 | 53 | 287 | 0.0 | 0.0 | 0.00 | 0.00 | 0.00 | 65 | 1019.4 |
| 20260504011633 | 53 | 213 | 1.7 | 2.6 | 0.00 | 0.00 | 0.00 | 65 | 1019.7 |
| 20260504011130 | 53 | 277 | 0.0 | 0.0 | 0.00 | 0.00 | 0.00 | 64 | 1019.6 |
| 20260504010626 | 52 | 241 | 0.0 | 0.0 | 0.00 | 0.00 | 0.00 | 63 | 1019.7 |
| 20260504010122 | 51 | 286 | 0.0 | 0.0 | 0.00 | 0.00 | 0.00 | 66 | 1019.2 |
| 20260504005619 | 51 | 279 | 0.0 | 0.0 | 0.00 | 0.00 | 0.00 | 67 | 1019.2 |
| 20260504005116 | 51 | 281 | 0.0 | 0.0 | 0.00 | 0.00 | 0.00 | 66 | 1018.9 |
| 20260504004614 | 52 | 281 | 0.0 | 0.0 | 0.00 | 0.00 | 0.00 | 65 | 1019.1 |
| 20260504004111 | 52 | 281 | 0.0 | 0.0 | 0.00 | 0.00 | 0.00 | 64 | 1019.0 |
| 20260504003607 | 52 | 273 | 0.0 | 0.0 | 0.00 | 0.00 | 0.00 | 64 | 1018.8 |
| 20260504003104 | 53 | 281 | 0.0 | 0.0 | 0.00 | 0.00 | 0.00 | 63 | 1018.8 |
| 20260504002601 | 53 | 281 | 0.0 | 0.0 | 0.00 | 0.00 | 0.00 | 62 | 1018.9 |
| 20260504002058 | 54 | 287 | 0.0 | 0.0 | 0.00 | 0.00 | 0.00 | 59 | 1018.4 |
| 20260504001556 | 54 | 286 | 0.0 | 0.0 | 0.00 | 0.00 | 0.00 | 58 | 1018.4 |
| 20260504001051 | 54 | 308 | 0.0 | 0.0 | 0.00 | 0.00 | 0.00 | 57 | 1018.4 |
| 20260504000549 | 55 | 308 | 0.0 | 0.0 | 0.00 | 0.00 | 0.00 | 56 | 1018.5 |
| 20260504000046 | 56 | 317 | 0.0 | 0.0 | 0.00 | 0.00 | 0.00 | 54 | 1018.3 |
| 20260503235545 | 56 | 296 | 0.0 | 0.0 | 0.00 | 0.00 | 0.00 | 52 | 1018.3 |
| 20260503235041 | 57 | 297 | 0.0 | 0.0 | 0.00 | 0.00 | 0.00 | 50 | 1018.3 |
| 20260503234538 | 57 | 297 | 0.0 | 0.0 | 0.00 | 0.00 | 0.00 | 49 | 1018.3 |
| 20260503234037 | 58 | 301 | 0.0 | 0.0 | 0.00 | 0.00 | 0.00 | 46 | 1018.3 |
| 20260503233533 | 59 | 297 | 0.0 | 0.0 | 0.00 | 0.00 | 0.00 | 44 | 1018.2 |
| 20260503233029 | 59 | 297 | 0.0 | 0.0 | 0.00 | 0.00 | 0.00 | 42 | 1018.1 |
| 20260503232526 | 59 | 280 | 0.0 | 0.9 | 0.00 | 0.00 | 0.00 | 43 | 1018.1 |
| 20260503232024 | 59 | 308 | 0.0 | 0.0 | 0.00 | 0.00 | 0.00 | 44 | 1017.9 |
| 20260503231521 | 59 | 321 | 0.0 | 0.0 | 0.00 | 0.00 | 0.00 | 44 | 1017.8 |
| 20260503231018 | 60 | 308 | 0.0 | 0.0 | 0.00 | 0.00 | 0.00 | 43 | 1017.7 |
| 20260503230514 | 60 | 314 | 0.0 | 0.0 | 0.00 | 0.00 | 0.00 | 44 | 1017.9 |
| 20260503230012 | 60 | 319 | 0.0 | 0.0 | 0.00 | 0.00 | 0.00 | 43 | 1017.9 |
| 20260503225509 | 60 | 2 | 0.0 | 0.0 | 0.00 | 0.00 | 0.00 | 42 | 1018.1 |
| 20260503225004 | 60 | 297 | 0.0 | 0.0 | 0.00 | 0.00 | 0.00 | 41 | 1018.0 |
| 20260503224502 | 60 | 304 | 0.0 | 0.0 | 0.00 | 0.00 | 0.00 | 42 | 1018.1 |
| 20260503223959 | 61 | 330 | 0.0 | 0.0 | 0.00 | 0.00 | 0.00 | 42 | 1017.9 |
| 20260503223457 | 61 | 308 | 0.0 | 0.0 | 0.00 | 0.00 | 0.00 | 38 | 1017.9 |
| 20260503222952 | 61 | 292 | 0.0 | 0.0 | 0.00 | 0.00 | 0.00 | 39 | 1018.0 |
| 20260503222451 | 61 | 324 | 0.0 | 0.0 | 0.00 | 0.00 | 0.00 | 38 | 1018.3 |
| 20260503221949 | 62 | 224 | 1.7 | 4.3 | 0.00 | 0.00 | 0.00 | 35 | 1017.9 |
| 20260503221447 | 62 | 289 | 0.9 | 0.9 | 0.00 | 0.00 | 0.00 | 36 | 1017.8 |
| 20260503220943 | 62 | 254 | 3.5 | 4.3 | 0.00 | 0.00 | 0.00 | 36 | 1017.8 |
| 20260503220439 | 62 | 312 | 0.0 | 0.9 | 0.00 | 0.00 | 0.00 | 37 | 1017.8 |
| 20260503215937 | 62 | 288 | 0.9 | 1.7 | 0.00 | 0.00 | 0.00 | 36 | 1017.9 |
| 20260503215433 | 62 | 247 | 1.7 | 2.6 | 0.00 | 0.00 | 0.00 | 36 | 1017.9 |
| 20260503214931 | 62 | 313 | 0.0 | 0.9 | 0.00 | 0.00 | 0.00 | 36 | 1017.9 |
| 20260503214429 | 61 | 290 | 0.0 | 0.9 | 0.00 | 0.00 | 0.00 | 36 | 1017.9 |
| 20260503213926 | 62 | 326 | 1.7 | 1.7 | 0.00 | 0.00 | 0.00 | 35 | 1018.0 |
| 20260503213424 | 62 | 301 | 0.9 | 0.9 | 0.00 | 0.00 | 0.00 | 34 | 1017.9 |
| 20260503212920 | 62 | 305 | 0.9 | 1.7 | 0.00 | 0.00 | 0.00 | 37 | 1017.8 |
| 20260503212418 | 62 | 337 | 0.9 | 0.9 | 0.00 | 0.00 | 0.00 | 37 | 1017.8 |
| 20260503211915 | 62 | 297 | 1.7 | 2.6 | 0.00 | 0.00 | 0.00 | 38 | 1017.8 |
| 20260503211412 | 62 | 341 | 1.7 | 1.7 | 0.00 | 0.00 | 0.00 | 37 | 1017.9 |
| 20260503210907 | 62 | 329 | 0.0 | 0.0 | 0.00 | 0.00 | 0.00 | 36 | 1017.8 |
| 20260503210405 | 62 | 315 | 0.9 | 1.7 | 0.00 | 0.00 | 0.00 | 35 | 1017.8 |
| 20260503205904 | 63 | 330 | 0.0 | 0.0 | 0.00 | 0.00 | 0.00 | 35 | 1017.7 |
| 20260503205402 | 64 | 299 | 0.0 | 0.0 | 0.00 | 0.00 | 0.00 | 36 | 1017.7 |
| 20260503204858 | 62 | 322 | 0.0 | 0.9 | 0.00 | 0.00 | 0.00 | 34 | 1017.6 |
| 20260503204356 | 62 | 280 | 0.9 | 0.9 | 0.00 | 0.00 | 0.00 | 35 | 1017.9 |
| 20260503203853 | 62 | 288 | 2.6 | 2.6 | 0.00 | 0.00 | 0.00 | 35 | 1018.0 |
| 20260503203350 | 63 | 279 | 0.9 | 1.7 | 0.00 | 0.00 | 0.00 | 37 | 1017.9 |
| 20260503202847 | 62 | 324 | 0.0 | 0.9 | 0.00 | 0.00 | 0.00 | 39 | 1017.9 |
| 20260503202345 | 62 | 296 | 2.6 | 2.6 | 0.00 | 0.00 | 0.00 | 37 | 1018.1 |
| 20260503201843 | 62 | 297 | 0.0 | 0.0 | 0.00 | 0.00 | 0.00 | 38 | 1017.9 |
| 20260503201340 | 62 | 297 | 0.9 | 0.9 | 0.00 | 0.00 | 0.00 | 39 | 1018.1 |
| 20260503200837 | 62 | 303 | 1.7 | 1.7 | 0.00 | 0.00 | 0.00 | 37 | 1018.2 |
| 20260503200333 | 62 | 283 | 0.0 | 0.0 | 0.00 | 0.00 | 0.00 | 46 | 1018.2 |
| 20260503195830 | 61 | 309 | 0.9 | 1.7 | 0.00 | 0.00 | 0.00 | 39 | 1018.1 |
| 20260503195327 | 61 | 55 | 0.0 | 0.0 | 0.00 | 0.00 | 0.00 | 40 | 1018.2 |
| 20260503194824 | 61 | 310 | 2.6 | 5.2 | 0.00 | 0.00 | 0.00 | 39 | 1018.3 |
| 20260503194320 | 61 | 314 | 0.0 | 0.9 | 0.00 | 0.00 | 0.00 | 41 | 1018.2 |
| 20260503193816 | 59 | 300 | 0.0 | 0.0 | 0.00 | 0.00 | 0.00 | 44 | 1018.4 |
| 20260503193312 | 61 | 34 | 2.6 | 2.6 | 0.00 | 0.00 | 0.00 | 41 | 1018.4 |
| 20260503192808 | 60 | 304 | 0.9 | 1.7 | 0.00 | 0.00 | 0.00 | 41 | 1018.6 |
| 20260503192305 | 61 | 353 | 2.6 | 2.6 | 0.00 | 0.00 | 0.00 | 40 | 1018.5 |
| 20260503191800 | 62 | 250 | 0.9 | 1.7 | 0.00 | 0.00 | 0.00 | 40 | 1018.8 |
| 20260503191257 | 61 | 298 | 0.0 | 0.0 | 0.00 | 0.00 | 0.00 | 42 | 1018.6 |
| 20260503190754 | 60 | 321 | 0.0 | 0.0 | 0.00 | 0.00 | 0.00 | 42 | 1018.9 |
| 20260503190251 | 60 | 268 | 0.9 | 2.6 | 0.00 | 0.00 | 0.00 | 41 | 1018.8 |
| 20260503185748 | 61 | 217 | 0.9 | 1.7 | 0.00 | 0.00 | 0.00 | 39 | 1018.8 |
| 20260503185244 | 60 | 347 | 3.5 | 5.2 | 0.00 | 0.00 | 0.00 | 41 | 1019.0 |
| 20260503184738 | 59 | 354 | 1.7 | 2.6 | 0.00 | 0.00 | 0.00 | 40 | 1018.9 |
| 20260503184235 | 60 | 317 | 0.9 | 0.9 | 0.00 | 0.00 | 0.00 | 40 | 1018.7 |
| 20260503183731 | 60 | 297 | 0.9 | 1.7 | 0.00 | 0.00 | 0.00 | 40 | 1018.8 |
| 20260503183229 | 59 | 311 | 0.0 | 0.0 | 0.00 | 0.00 | 0.00 | 40 | 1018.8 |
| 20260503182726 | 59 | 307 | 0.9 | 0.9 | 0.00 | 0.00 | 0.00 | 40 | 1018.6 |
| 20260503182225 | 59 | 343 | 2.6 | 6.1 | 0.00 | 0.00 | 0.00 | 41 | 1019.0 |
| 20260503181722 | 60 | 311 | 0.9 | 0.9 | 0.00 | 0.00 | 0.00 | 41 | 1019.3 |
| 20260503181219 | 58 | 311 | 0.0 | 0.0 | 0.00 | 0.00 | 0.00 | 44 | 1019.0 |
| 20260503180715 | 58 | 283 | 0.9 | 2.6 | 0.00 | 0.00 | 0.00 | 43 | 1019.1 |
| 20260503180214 | 58 | 302 | 1.7 | 4.3 | 0.00 | 0.00 | 0.00 | 43 | 1019.0 |
| 20260503175710 | 59 | 330 | 0.9 | 0.9 | 0.00 | 0.00 | 0.00 | 42 | 1019.0 |
| 20260503175208 | 59 | 347 | 1.7 | 2.6 | 0.00 | 0.00 | 0.00 | 41 | 1019.0 |
| 20260503174703 | 59 | 249 | 0.0 | 0.0 | 0.00 | 0.00 | 0.00 | 42 | 1019.1 |
| 20260503174201 | 58 | 334 | 0.9 | 1.7 | 0.00 | 0.00 | 0.00 | 41 | 1019.1 |
| 20260503173656 | 57 | 358 | 0.0 | 0.9 | 0.00 | 0.00 | 0.00 | 43 | 1019.3 |
| 20260503173152 | 57 | 296 | 2.6 | 2.6 | 0.00 | 0.00 | 0.00 | 41 | 1019.2 |
| 20260503172650 | 57 | 319 | 2.6 | 2.6 | 0.00 | 0.00 | 0.00 | 43 | 1019.2 |
| 20260503172147 | 57 | 338 | 0.9 | 1.7 | 0.00 | 0.00 | 0.00 | 43 | 1019.1 |
| 20260503171643 | 57 | 277 | 1.7 | 1.7 | 0.00 | 0.00 | 0.00 | 42 | 1019.3 |
| 20260503171141 | 57 | 33 | 1.7 | 2.6 | 0.00 | 0.00 | 0.00 | 44 | 1019.4 |
| 20260503170638 | 58 | 29 | 2.6 | 4.3 | 0.00 | 0.00 | 0.00 | 42 | 1019.5 |
| 20260503170134 | 57 | 246 | 4.3 | 6.1 | 0.00 | 0.00 | 0.00 | 40 | 1019.4 |
| 20260503150526 | 55 | 334 | 2.6 | 2.6 | 0.00 | 0.00 | 0.00 | 48 | 1020.0 |
| 20260503131419 | 55 | 351 | 0.9 | 0.9 | 0.00 | 0.00 | 0.00 | 56 | 1019.3 |
| 20260503130916 | 55 | 320 | 0.0 | 0.0 | 0.00 | 0.00 | 0.00 | 59 | 1019.5 |
| 20260503130413 | 54 | 281 | 2.6 | 2.6 | 0.00 | 0.00 | 0.00 | 58 | 1019.3 |
| 20260503110817 | 52 | 329 | 0.9 | 0.9 | 0.00 | 0.00 | 0.00 | 57 | 1018.0 |
| 20260503110314 | 52 | 336 | 0.9 | 1.7 | 0.00 | 0.00 | 0.00 | 57 | 1017.8 |
| 20260503100240 | 52 | 305 | 0.0 | 0.9 | 0.00 | 0.00 | 0.00 | 60 | 1016.7 |
| 20260503090200 | 54 | 4 | 1.7 | 1.7 | 0.00 | 0.00 | 0.00 | 61 | 1015.7 |
| 20260503081630 | 54 | 0 | 0.9 | 1.7 | 0.00 | 0.00 | 0.00 | 69 | 1015.1 |
| 20260503081127 | 54 | 328 | 0.0 | 0.9 | 0.00 | 0.00 | 0.00 | 68 | 1014.9 |
| 20260503080623 | 54 | 319 | 1.7 | 2.6 | 0.00 | 0.00 | 0.00 | 67 | 1014.9 |
| 20260503080120 | 54 | 325 | 1.7 | 2.6 | 0.00 | 0.00 | 0.00 | 66 | 1015.0 |
| 20260503072557 | 54 | 310 | 0.0 | 0.9 | 0.00 | 0.00 | 0.00 | 62 | 1014.8 |
| 20260503072054 | 54 | 333 | 0.0 | 0.9 | 0.00 | 0.00 | 0.00 | 63 | 1014.7 |
| 20260503071550 | 54 | 316 | 0.0 | 0.0 | 0.00 | 0.00 | 0.00 | 63 | 1014.5 |
| 20260503071047 | 54 | 292 | 0.9 | 0.9 | 0.00 | 0.00 | 0.00 | 64 | 1014.3 |
| 20260503070543 | 54 | 307 | 0.0 | 0.0 | 0.00 | 0.00 | 0.00 | 67 | 1014.2 |
| 20260503054957 | 54 | 322 | 0.0 | 0.0 | 0.00 | 0.00 | 0.00 | 70 | 1013.8 |
| 20260503054453 | 54 | 293 | 0.0 | 0.0 | 0.00 | 0.00 | 0.00 | 71 | 1014.0 |
| 20260503053951 | 54 | 321 | 0.0 | 0.0 | 0.00 | 0.00 | 0.00 | 72 | 1013.9 |
| 20260503053449 | 54 | 298 | 0.0 | 0.0 | 0.00 | 0.00 | 0.00 | 72 | 1014.4 |
| 20260503052945 | 54 | 339 | 0.0 | 0.0 | 0.00 | 0.00 | 0.00 | 73 | 1014.4 |
| 20260503052443 | 54 | 304 | 0.0 | 0.0 | 0.00 | 0.00 | 0.00 | 72 | 1014.3 |
| 20260503051938 | 54 | 318 | 0.0 | 0.0 | 0.00 | 0.00 | 0.00 | 72 | 1014.2 |
| 20260503051434 | 54 | 307 | 0.0 | 0.0 | 0.00 | 0.00 | 0.00 | 72 | 1014.2 |
| 20260503050932 | 55 | 306 | 0.0 | 0.0 | 0.00 | 0.00 | 0.00 | 72 | 1014.1 |
| 20260503050427 | 55 | 303 | 0.0 | 0.0 | 0.00 | 0.00 | 0.00 | 71 | 1014.2 |
| 20260503045926 | 55 | 327 | 0.9 | 0.9 | 0.00 | 0.00 | 0.00 | 71 | 1014.4 |
| 20260503045423 | 55 | 306 | 0.0 | 0.0 | 0.00 | 0.00 | 0.00 | 70 | 1014.1 |
| 20260503044919 | 55 | 301 | 0.0 | 0.0 | 0.00 | 0.00 | 0.00 | 70 | 1014.4 |
| 20260503044416 | 55 | 334 | 0.0 | 0.0 | 0.00 | 0.00 | 0.00 | 68 | 1014.2 |
| 20260503043914 | 55 | 303 | 0.0 | 0.9 | 0.00 | 0.00 | 0.00 | 66 | 1014.1 |
| 20260503043410 | 55 | 305 | 0.0 | 0.0 | 0.00 | 0.00 | 0.00 | 65 | 1014.2 |
| 20260503042907 | 56 | 315 | 0.0 | 0.0 | 0.00 | 0.00 | 0.00 | 65 | 1014.2 |
| 20260503042403 | 56 | 319 | 0.9 | 1.7 | 0.00 | 0.00 | 0.00 | 65 | 1014.2 |
| 20260503041859 | 56 | 313 | 0.0 | 0.0 | 0.00 | 0.00 | 0.00 | 65 | 1014.2 |
| 20260503041357 | 56 | 309 | 0.0 | 0.9 | 0.00 | 0.00 | 0.00 | 65 | 1014.2 |
| 20260503040854 | 56 | 319 | 0.0 | 0.0 | 0.00 | 0.00 | 0.00 | 65 | 1014.2 |
| 20260503040352 | 56 | 289 | 0.0 | 0.9 | 0.00 | 0.00 | 0.00 | 64 | 1014.5 |
| 20260503035848 | 56 | 306 | 0.0 | 0.0 | 0.00 | 0.00 | 0.00 | 63 | 1014.2 |
| 20260503035345 | 56 | 323 | 0.0 | 0.0 | 0.00 | 0.00 | 0.00 | 62 | 1014.1 |
| 20260503034843 | 56 | 326 | 0.0 | 0.0 | 0.00 | 0.00 | 0.00 | 63 | 1014.2 |
| 20260503034340 | 56 | 309 | 0.0 | 0.0 | 0.00 | 0.00 | 0.00 | 63 | 1014.4 |
| 20260503033837 | 56 | 327 | 0.0 | 0.0 | 0.00 | 0.00 | 0.00 | 62 | 1014.3 |
| 20260503033335 | 56 | 316 | 0.0 | 0.0 | 0.00 | 0.00 | 0.00 | 62 | 1014.1 |
| 20260503032832 | 56 | 317 | 0.0 | 0.0 | 0.00 | 0.00 | 0.00 | 62 | 1014.1 |
| 20260503032331 | 56 | 352 | 0.0 | 0.0 | 0.00 | 0.00 | 0.00 | 64 | 1014.0 |
| 20260503031828 | 56 | 312 | 0.0 | 0.0 | 0.00 | 0.00 | 0.00 | 63 | 1013.7 |
| 20260503031326 | 56 | 353 | 0.9 | 0.9 | 0.00 | 0.00 | 0.00 | 63 | 1014.0 |
| 20260503030822 | 56 | 321 | 0.0 | 0.0 | 0.00 | 0.00 | 0.00 | 64 | 1014.0 |
| 20260503030319 | 56 | 324 | 0.0 | 0.0 | 0.00 | 0.00 | 0.00 | 62 | 1014.3 |
| 20260503025815 | 56 | 301 | 0.9 | 0.9 | 0.00 | 0.00 | 0.00 | 62 | 1014.3 |
| 20260503025313 | 56 | 324 | 0.9 | 1.7 | 0.00 | 0.00 | 0.00 | 63 | 1014.2 |
| 20260503024809 | 56 | 325 | 0.0 | 0.0 | 0.00 | 0.00 | 0.00 | 63 | 1014.3 |
| 20260503024306 | 56 | 292 | 0.0 | 0.0 | 0.00 | 0.00 | 0.00 | 62 | 1014.3 |
| 20260503023803 | 56 | 321 | 0.0 | 0.0 | 0.00 | 0.00 | 0.00 | 61 | 1014.3 |
| 20260503023300 | 56 | 322 | 0.0 | 0.0 | 0.00 | 0.00 | 0.00 | 61 | 1014.4 |
| 20260503022756 | 56 | 325 | 0.9 | 0.9 | 0.00 | 0.00 | 0.00 | 61 | 1014.2 |
| 20260503022251 | 56 | 342 | 0.9 | 0.9 | 0.00 | 0.00 | 0.00 | 62 | 1014.1 |
| 20260503021748 | 56 | 314 | 0.0 | 0.0 | 0.00 | 0.00 | 0.00 | 62 | 1014.2 |
| 20260503021244 | 56 | 315 | 0.0 | 0.0 | 0.00 | 0.00 | 0.00 | 61 | 1014.0 |
| 20260503020742 | 56 | 339 | 0.9 | 0.9 | 0.00 | 0.00 | 0.00 | 62 | 1014.2 |
| 20260503020239 | 56 | 319 | 0.0 | 0.0 | 0.00 | 0.00 | 0.00 | 62 | 1014.0 |
| 20260503015735 | 56 | 324 | 0.0 | 0.0 | 0.00 | 0.00 | 0.00 | 62 | 1014.1 |
| 20260503015232 | 56 | 324 | 0.0 | 0.0 | 0.00 | 0.00 | 0.00 | 62 | 1014.1 |
| 20260503014728 | 56 | 341 | 0.0 | 0.0 | 0.00 | 0.00 | 0.00 | 63 | 1014.2 |
| 20260503014227 | 56 | 15 | 0.9 | 1.7 | 0.00 | 0.00 | 0.00 | 63 | 1013.9 |
| 20260503013723 | 56 | 318 | 0.9 | 1.7 | 0.00 | 0.00 | 0.00 | 62 | 1013.8 |
| 20260503013221 | 56 | 320 | 0.0 | 0.0 | 0.00 | 0.00 | 0.00 | 63 | 1013.8 |
| 20260503012718 | 56 | 326 | 0.0 | 0.9 | 0.00 | 0.00 | 0.00 | 63 | 1013.8 |